TimeHST,TemperatureF,Dew PointF,Humidity,Sea Level PressureIn,VisibilityMPH,Wind Direction,Wind SpeedMPH,Gust SpeedMPH,PrecipitationIn,Events,Conditions,WindDirDegrees,DateUTC
12:23 AM,71.6,66.2,83,29.94,10.0,Calm,Calm,-,N/A,,Mostly Cloudy,0,2012-12-07 10:23:00
12:32 AM,71.6,66.2,83,29.93,10.0,WSW,3.5,-,N/A,,Mostly Cloudy,240,2012-12-07 10:32:00
12:40 AM,71.6,66.2,83,29.93,10.0,WSW,3.5,-,N/A,,Mostly Cloudy,250,2012-12-07 10:40:00
12:53 AM,73.0,66.9,81,29.92,10.0,West,4.6,-,N/A,,Mostly Cloudy,260,2012-12-07 10:53:00
1:53 AM,75.0,70.0,84,29.93,9.0,South,6.9,-,0.01,Rain,Light Rain,190,2012-12-07 11:53:00
2:45 AM,75.2,69.8,83,29.93,10.0,SSW,5.8,-,0.00,,Mostly Cloudy,200,2012-12-07 12:45:00
2:53 AM,75.0,70.0,84,29.92,10.0,South,5.8,-,0.00,Rain,Light Rain,190,2012-12-07 12:53:00
3:35 AM,75.2,69.8,83,29.92,10.0,South,10.4,-,0.00,,Overcast,170,2012-12-07 13:35:00
3:46 AM,75.2,69.8,83,29.92,10.0,SSW,5.8,-,0.01,Rain,Light Rain,200,2012-12-07 13:46:00
3:53 AM,73.9,70.0,87,29.92,10.0,SW,4.6,-,0.01,,Overcast,220,2012-12-07 13:53:00
4:17 AM,75.2,69.8,83,29.93,10.0,SW,6.9,-,N/A,,Overcast,220,2012-12-07 14:17:00
4:53 AM,73.9,69.1,85,29.92,10.0,SW,5.8,-,0.00,,Overcast,230,2012-12-07 14:53:00
5:53 AM,75.0,68.0,79,29.94,10.0,WSW,8.1,-,N/A,,Overcast,240,2012-12-07 15:53:00
6:07 AM,73.4,68.0,83,29.96,10.0,Calm,Calm,-,N/A,,Mostly Cloudy,0,2012-12-07 16:07:00
6:53 AM,75.0,66.9,76,29.96,10.0,WSW,5.8,-,N/A,,Mostly Cloudy,240,2012-12-07 16:53:00
7:08 AM,75.2,66.2,73,29.98,10.0,WSW,9.2,-,N/A,,Mostly Cloudy,240,2012-12-07 17:08:00
7:32 AM,75.2,66.2,73,29.99,10.0,Calm,Calm,-,N/A,,Scattered Clouds,0,2012-12-07 17:32:00
7:53 AM,75.0,66.9,76,29.98,10.0,SSW,6.9,-,N/A,,Clear,210,2012-12-07 17:53:00
8:53 AM,79.0,68.0,69,30.00,10.0,WSW,10.4,-,N/A,,Clear,240,2012-12-07 18:53:00
9:53 AM,81.0,66.0,60,30.00,10.0,SW,8.1,-,N/A,,Partly Cloudy,230,2012-12-07 19:53:00
10:53 AM,80.1,66.0,62,30.01,10.0,SW,8.1,-,N/A,,Partly Cloudy,230,2012-12-07 20:53:00
11:53 AM,82.0,66.9,60,29.97,10.0,South,10.4,-,N/A,,Partly Cloudy,170,2012-12-07 21:53:00
12:53 PM,78.1,68.0,71,29.92,10.0,South,10.4,-,N/A,,Clear,180,2012-12-07 22:53:00
1:53 PM,79.0,69.1,72,29.85,10.0,SE,13.8,-,N/A,,Clear,140,2012-12-07 23:53:00
2:53 PM,79.0,68.0,69,29.86,10.0,SSE,10.4,-,N/A,,Partly Cloudy,160,2012-12-08 00:53:00
3:53 PM,78.1,66.9,68,29.85,10.0,SE,8.1,-,N/A,,Clear,140,2012-12-08 01:53:00
4:53 PM,79.0,68.0,69,29.87,10.0,SSE,5.8,-,N/A,,Clear,160,2012-12-08 02:53:00
5:29 PM,77.0,68.0,74,29.89,10.0,South,5.8,-,N/A,,Mostly Cloudy,180,2012-12-08 03:29:00
5:53 PM,77.0,68.0,74,29.89,10.0,Calm,Calm,-,N/A,,Mostly Cloudy,0,2012-12-08 03:53:00
6:23 PM,75.2,68.0,78,29.91,10.0,Calm,Calm,-,N/A,,Scattered Clouds,0,2012-12-08 04:23:00
6:53 PM,75.9,68.0,76,29.91,10.0,SW,3.5,-,N/A,,Partly Cloudy,220,2012-12-08 04:53:00
7:53 PM,73.9,68.0,82,29.94,10.0,WNW,4.6,-,N/A,,Clear,290,2012-12-08 05:53:00
8:53 PM,73.0,68.0,84,29.95,10.0,WNW,3.5,-,N/A,,Scattered Clouds,290,2012-12-08 06:53:00
9:53 PM,72.0,66.9,84,29.95,10.0,West,4.6,-,N/A,,Partly Cloudy,280,2012-12-08 07:53:00
10:53 PM,72.0,66.9,84,29.95,10.0,West,5.8,-,N/A,,Clear,270,2012-12-08 08:53:00
11:29 PM,73.4,66.2,78,29.94,10.0,Variable,3.5,-,N/A,,Overcast,0,2012-12-08 09:29:00
11:53 PM,72.0,66.9,84,29.93,8.0,NW,4.6,-,0.00,Rain,Light Rain,320,2012-12-08 09:53:00